Theta_e
347 347 347 346 345 345 346 348 348 349 349 348 348 349 347 346 345 346 346 346 344 340 340 342 343 344 346 345 346 345 344 344 343 343 343 343 342 342 342 342 341 340 341 341 341 342 340 339 340 342 342 343 342 331 330 330 330 332 331 333 334 331
346 346 346 345 345 344 344 345 343 345 345 346 346 346 344 344 346 343 345 341 338 340 338 339 342 346 343 345 343 344 344 343 343 343 343 342 342 341 341 341 341 340 340 339 340 328 330 337 339 341 341 340 332 330 330 330 330 331 332 331 333 337
345 345 345 345 345 344 342 341 341 342 345 345 345 344 343 342 337 336 337 337 337 335 337 338 339 343 342 344 344 344 343 343 342 342 342 342 341 340 340 340 340 340 340 338 325 323 324 323 326 340 340 334 330 330 330 330 330 331 330 332 331 340
344 345 344 343 342 341 340 340 340 340 340 340 341 341 339 338 336 334 334 334 335 336 334 334 346 347 346 342 342 343 343 342 342 342 342 342 341 340 340 339 338 337 334 331 322 323 325 325 325 327 330 330 329 330 330 330 330 330 331 336 333 340
344 343 342 342 340 338 339 339 339 340 341 340 339 338 337 336 335 333 333 334 334 336 334 335 337 338 337 337 336 336 335 336 336 337 339 333 332 334 330 327 327 329 325 327 327 326 327 326 327 329 329 330 330 329 330 330 330 329 330 331 334 341
342 342 341 340 338 339 338 338 339 340 339 339 339 337 336 335 334 334 333 335 336 333 332 333 334 333 332 334 334 333 334 334 334 335 336 332 331 329 327 327 328 328 326 327 329 329 328 328 327 327 329 329 329 330 330 330 331 331 329 330 335 340
339 339 339 339 339 338 337 338 339 339 338 338 338 336 335 335 335 334 333 336 334 332 331 330 332 331 332 333 334 333 332 330 330 329 332 330 329 329 328 328 327 326 326 329 330 329 326 325 327 328 329 329 329 330 330 330 331 330 331 331 337 339
338 338 337 339 338 337 337 338 339 341 337 340 338 336 335 334 334 333 333 334 335 331 331 331 330 332 333 332 329 329 329 329 328 329 331 329 329 328 329 327 327 327 329 330 330 328 326 325 326 328 329 328 328 328 329 330 331 331 331 333 335 340
337 337 337 337 337 337 337 338 339 337 338 341 336 336 335 334 333 333 332 334 335 330 329 330 330 330 330 330 327 327 328 327 327 328 328 328 328 327 328 328 329 330 327 328 326 325 326 327 326 327 328 328 329 328 330 330 331 331 331 332 335 338
336 336 336 337 336 336 336 335 336 336 338 339 335 334 334 333 334 334 332 333 333 331 331 330 329 328 329 329 330 329 327 328 330 330 327 327 328 328 328 327 328 329 328 326 325 327 325 327 328 327 328 329 329 330 330 331 331 331 331 332 333 336
336 337 336 335 335 335 335 335 336 336 337 335 335 335 333 333 334 333 332 332 332 332 330 330 330 329 329 330 330 330 328 330 330 330 328 328 330 330 329 328 328 327 326 325 326 325 325 326 327 328 329 329 329 330 331 331 331 332 332 332 332 332
336 336 335 334 335 335 334 335 336 336 335 334 335 333 334 335 335 333 331 331 330 331 332 330 330 329 329 329 329 328 330 329 328 330 329 330 332 332 331 331 331 330 330 327 325 325 326 327 328 329 329 330 330 331 331 331 332 332 331 331 331 332
337 336 334 334 335 335 334 336 335 335 335 336 335 333 333 335 334 333 331 330 329 330 330 330 329 331 332 329 327 326 327 328 327 328 331 333 333 333 333 332 330 330 327 325 325 325 327 326 327 328 329 330 331 331 332 332 331 331 331 330 330 329
336 335 335 335 334 335 335 335 335 335 336 335 334 333 333 332 334 332 330 328 328 329 328 328 329 329 329 328 327 326 325 328 329 330 332 333 332 331 330 329 328 325 329 324 323 324 325 326 327 327 328 329 330 330 331 332 331 331 330 330 329 330
337 335 336 335 335 335 335 335 335 335 335 334 333 332 330 332 334 332 329 327 328 329 327 328 328 329 327 327 326 325 325 329 331 331 332 331 332 332 329 329 328 325 323 323 324 326 325 325 326 327 327 328 329 330 331 330 330 330 330 328 329 328
336 335 335 335 335 335 336 335 335 337 334 333 332 332 330 331 332 330 329 328 327 328 327 328 328 329 328 326 327 326 328 330 332 331 332 331 331 331 329 328 327 324 323 323 324 323 324 325 326 326 327 328 328 329 328 329 330 330 330 330 329 328
334 335 335 335 335 335 335 335 335 336 334 333 332 330 329 330 331 331 329 327 328 329 327 329 328 329 329 328 324 326 327 330 331 331 331 331 330 330 328 328 327 326 322 322 322 323 324 326 327 327 327 327 327 327 328 328 328 328 330 329 328 328
335 335 335 334 334 334 334 334 334 334 335 332 331 329 330 331 331 330 329 327 327 329 330 328 329 329 327 327 327 327 326 325 328 329 329 329 328 329 328 328 327 327 326 323 322 324 325 326 327 327 327 327 327 327 328 328 328 331 328 328 328 329
333 332 331 331 331 330 330 331 331 333 333 331 330 329 329 329 328 330 329 329 329 331 332 329 330 329 327 329 327 326 328 326 326 327 328 329 328 327 327 326 327 325 325 323 323 324 325 326 327 327 326 326 327 327 328 328 327 326 325 329 331 331
330 329 329 328 328 328 329 331 330 331 331 329 328 329 328 329 329 329 330 330 330 330 331 330 328 328 328 328 327 326 327 327 326 327 327 327 326 326 326 327 325 324 324 325 324 323 324 325 325 325 324 324 325 328 328 327 326 326 327 328 328 327
328 328 328 327 327 327 327 329 328 329 329 328 329 328 329 327 328 328 328 329 329 330 330 329 329 328 327 331 327 325 327 327 327 327 326 326 327 327 327 327 324 323 323 322 321 320 322 323 323 321 322 322 323 326 328 328 327 327 326 326 326 325
327 328 327 327 327 327 327 331 329 327 326 328 329 328 325 324 327 329 328 328 329 329 329 328 329 327 328 327 325 325 325 326 326 325 325 325 327 328 327 327 325 322 321 320 318 320 321 318 316 317 318 317 320 322 325 325 326 326 326 326 326 326
327 327 327 327 327 326 327 329 329 327 329 324 326 328 327 327 330 328 326 328 329 329 328 327 327 328 327 325 325 325 325 325 325 327 325 326 327 327 326 326 323 322 321 320 320 321 320 318 315 316 315 316 314 316 318 320 323 325 326 326 326 326
327 327 326 327 327 326 328 329 328 329 327 326 324 327 326 327 327 327 326 328 326 327 327 327 326 327 325 325 324 325 325 324 325 325 324 324 325 325 325 324 323 322 321 318 316 320 323 320 317 318 311 309 312 313 312 315 318 321 326 325 325 325
327 327 326 327 327 327 329 326 325 325 326 326 326 324 325 322 324 326 325 325 325 325 327 326 325 325 326 323 322 324 325 325 324 323 324 323 324 324 323 323 324 323 322 320 317 319 322 321 319 319 315 311 307 308 309 314 318 318 323 324 325 326
326 326 326 326 327 328 329 325 323 323 322 320 320 321 322 323 321 324 326 323 324 325 327 326 325 326 327 325 323 324 324 325 324 323 324 323 323 323 323 322 324 323 320 318 320 318 319 321 320 320 319 315 313 308 310 316 316 311 319 322 323 324
327 326 326 326 327 327 326 325 324 323 323 322 321 318 320 322 324 321 322 322 322 322 324 325 323 323 324 324 323 323 324 325 326 324 324 324 324 324 324 325 324 322 321 321 319 317 317 318 318 319 320 319 319 315 318 317 310 314 312 317 319 319
327 326 326 326 326 327 326 324 322 321 322 321 321 319 319 321 319 320 320 321 322 321 322 321 322 322 322 324 322 322 321 323 324 324 325 324 324 324 324 324 325 324 322 323 321 319 317 316 319 317 319 317 318 317 315 313 315 315 314 313 315 318
326 326 325 326 326 326 325 323 322 321 321 320 321 321 321 320 319 318 318 317 320 320 320 320 320 321 320 322 324 321 320 322 322 323 325 324 321 325 324 323 323 322 322 321 321 320 319 319 316 317 317 315 316 314 314 314 315 313 311 313 313 314
326 326 325 325 325 324 323 322 321 321 320 318 319 319 319 317 316 316 317 315 317 317 316 317 317 318 319 320 321 320 320 321 322 323 325 323 321 323 323 324 324 323 321 320 318 320 320 320 318 316 317 317 313 311 313 312 311 312 313 310 313 314
325 325 324 325 323 322 321 321 321 321 320 318 317 319 317 314 314 314 316 313 315 315 315 315 317 316 317 318 317 319 318 320 320 324 324 321 323 324 323 324 324 322 321 321 319 319 318 318 318 318 316 317 317 317 314 311 312 312 310 310 312 311
324 324 323 324 322 320 321 321 321 321 319 318 318 319 318 315 315 316 315 314 313 314 314 315 315 316 316 317 316 316 318 319 321 318 318 320 321 322 323 322 322 322 322 320 319 319 318 317 317 317 315 316 315 314 313 314 314 314 313 314 315 311
323 321 322 322 320 319 320 320 320 320 319 318 319 319 317 315 315 316 315 315 314 314 314 315 314 317 314 314 316 315 316 318 317 317 317 318 318 319 321 320 321 320 320 320 319 318 317 318 318 318 317 315 316 315 314 314 315 313 313 314 315 311
322 321 320 320 320 319 319 320 320 319 319 319 318 318 316 316 315 316 316 316 315 315 314 315 314 315 315 315 315 315 315 315 316 316 317 316 316 317 318 320 319 319 319 318 318 318 317 316 315 314 315 315 315 315 314 316 314 314 314 314 311 309
321 320 321 320 320 320 320 318 317 317 318 318 318 317 317 318 316 316 315 316 315 314 315 314 315 314 314 314 314 313 313 314 314 315 316 316 318 316 316 317 316 315 315 316 318 317 316 316 316 315 314 315 315 314 315 315 314 314 315 315 312 308
321 321 321 320 320 320 320 318 317 317 317 318 318 317 317 318 317 318 317 317 316 315 315 314 312 314 313 315 313 313 312 312 313 314 315 314 313 315 314 315 312 312 312 315 315 315 316 317 316 315 316 313 315 314 316 316 314 314 313 312 311 308
320 321 320 319 319 320 321 318 317 317 317 317 317 317 317 316 317 318 317 316 317 315 314 313 314 313 313 311 312 311 311 311 312 312 313 313 313 311 312 312 311 309 308 308 312 312 312 315 313 314 314 315 315 314 315 314 314 313 312 310 309 307
Wind_Speed
8 8 8 7 7 7 9 14 12 14 14 14 14 14 13 14 12 12 11 11 10 6 5 5 6 5 9 5 7 9 9 9 8 8 9 8 7 7 8 8 6 3 3 5 5 5 6 7 6 5 5 8 12 7 6 5 5 5 4 4 4 3
8 9 8 7 6 5 6 9 5 6 6 9 11 11 9 7 9 7 12 8 5 4 4 4 4 6 4 5 6 9 9 8 8 9 9 7 6 6 8 8 6 4 3 4 5 3 4 5 6 6 7 10 7 6 5 5 5 5 4 4 4 4
9 9 9 8 6 6 7 5 5 5 6 9 8 8 7 8 6 6 5 5 5 4 4 4 4 4 3 7 6 9 9 8 8 9 9 8 6 6 8 8 7 6 5 5 3 2 3 4 2 5 6 6 6 6 5 5 5 5 4 3 3 9
10 9 8 6 6 6 5 5 5 4 5 5 6 6 7 7 6 5 5 5 5 4 3 2 7 11 8 4 5 7 8 8 8 9 9 5 5 6 9 9 9 7 4 2 2 2 5 3 2 2 4 5 5 6 6 5 5 4 5 4 4 12
8 8 8 6 7 6 5 5 4 5 5 5 6 6 6 6 5 5 4 4 4 4 3 3 3 3 3 3 3 3 3 2 3 4 5 4 2 2 3 4 3 3 1 1 2 2 4 3 2 3 5 5 5 5 5 4 4 3 2 3 3 10
8 8 7 6 6 7 7 5 5 5 5 5 6 6 6 5 5 4 4 4 4 5 3 4 3 3 3 3 4 3 2 3 3 2 2 4 2 2 3 3 2 2 1 1 1 2 3 3 4 4 5 5 5 5 5 5 5 4 2 2 3 9
7 7 7 6 5 5 5 5 5 5 6 5 5 6 6 5 5 5 4 4 5 4 4 4 4 2 3 3 3 2 2 2 3 1 1 3 3 3 2 2 2 1 1 2 2 3 2 3 4 5 5 5 4 5 5 5 4 4 3 3 5 10
6 6 6 6 6 5 5 6 6 7 5 7 6 6 6 5 5 5 4 4 4 4 4 4 3 3 3 3 3 2 2 2 2 1 0 1 4 3 3 2 1 2 3 3 3 2 2 4 4 4 6 5 5 4 4 4 4 4 4 4 4 7
7 7 6 6 6 5 5 5 5 5 6 7 6 6 6 5 5 4 4 4 4 5 3 3 4 3 3 3 2 2 2 2 2 1 1 2 3 4 3 2 1 2 3 3 2 3 4 4 4 4 6 6 5 5 5 4 4 4 3 4 5 6
8 7 6 6 5 6 6 5 5 5 5 7 5 5 5 5 5 5 4 4 4 5 5 5 4 3 4 3 2 1 2 1 2 1 1 2 2 3 3 1 1 2 3 2 3 3 4 5 5 4 5 6 5 5 5 5 4 4 3 4 4 5
7 7 6 6 5 6 5 5 5 5 5 6 5 5 5 5 4 4 4 4 3 4 4 4 5 4 3 3 2 2 2 1 1 0 2 2 2 3 3 2 1 2 2 3 3 3 5 6 4 4 4 6 5 5 5 4 4 4 4 4 3 3
8 6 6 6 5 5 5 5 5 5 5 5 6 5 5 5 5 4 3 4 4 4 4 4 4 4 4 4 3 3 2 1 1 1 2 2 3 3 3 2 2 2 3 2 3 4 5 5 5 4 4 5 4 5 5 5 5 4 4 4 4 4
9 7 7 7 6 5 5 5 5 5 5 6 6 5 5 5 4 4 3 4 3 3 3 4 4 4 4 4 4 3 2 2 2 2 2 3 4 2 3 3 3 2 3 4 3 5 5 5 5 4 4 4 4 5 5 5 4 4 4 3 4 4
10 9 8 7 5 5 5 5 5 5 5 6 5 5 5 4 4 4 3 3 3 2 3 2 4 3 3 3 3 3 3 2 2 2 3 4 3 3 3 3 1 3 4 3 4 4 5 5 4 3 4 3 4 4 4 5 4 4 4 4 4 4
11 10 9 7 7 7 6 6 6 5 5 5 5 5 4 4 4 4 4 4 3 3 2 2 2 4 3 4 3 2 2 2 2 2 3 2 3 2 3 3 2 4 4 4 4 4 4 4 4 4 3 4 4 4 4 4 3 3 3 3 4 4
11 11 9 9 8 7 7 6 5 5 4 4 4 4 4 4 4 4 4 4 3 2 3 2 2 3 3 2 3 2 2 2 3 2 3 3 3 3 3 3 1 2 6 4 4 4 3 5 4 5 4 4 4 4 4 3 3 3 3 4 4 4
12 12 10 9 7 6 6 6 6 5 5 4 4 4 3 4 4 4 3 4 3 2 3 2 2 3 4 4 3 2 2 3 3 4 3 3 2 2 3 4 2 1 2 4 4 5 4 5 5 5 5 5 4 4 4 3 3 3 4 4 3 3
10 10 9 8 7 5 4 5 4 4 5 5 3 3 4 4 4 4 4 4 3 3 3 2 2 3 2 1 3 3 2 2 3 4 3 3 2 2 2 1 3 2 3 4 4 5 6 5 5 6 6 6 5 4 4 4 3 4 4 4 4 3
9 10 9 9 7 5 3 2 2 5 5 4 3 3 4 4 4 4 4 4 3 4 3 3 3 4 2 4 4 3 3 2 2 3 4 4 3 3 2 1 3 4 4 3 4 4 5 5 6 6 7 6 5 5 4 3 3 3 2 4 5 4
8 9 8 7 6 5 3 4 5 4 4 3 3 3 3 4 4 4 3 4 3 4 3 4 5 5 5 4 4 4 3 2 3 3 4 4 3 4 4 4 3 5 6 5 4 4 5 7 7 7 7 6 5 5 5 4 4 4 3 3 3 4
7 9 9 8 6 6 5 4 3 5 5 4 4 3 3 3 3 3 3 3 3 4 3 3 5 5 5 4 4 4 4 3 3 3 4 4 4 4 4 3 4 3 6 6 3 3 3 4 8 6 6 6 6 5 5 5 5 5 5 3 3 2
7 7 8 8 7 6 4 5 3 3 4 5 5 4 3 2 3 3 3 3 4 4 4 4 4 3 3 4 4 4 4 4 4 4 3 2 2 3 5 4 4 5 2 4 3 3 2 2 3 3 5 3 5 5 5 6 6 6 5 4 4 3
6 7 7 7 7 6 3 3 3 3 5 3 2 3 3 3 3 3 3 4 4 5 5 4 4 4 4 3 4 4 4 4 3 4 4 3 3 4 5 4 3 6 5 3 2 0 1 2 3 3 3 5 1 2 2 4 4 6 5 5 3 3
5 5 6 5 5 2 3 3 3 4 4 4 3 3 3 4 4 4 3 3 3 3 4 4 4 4 3 4 4 5 4 4 4 3 5 4 3 4 5 4 3 3 5 5 1 2 1 1 2 6 3 2 2 1 1 1 4 3 3 4 3 3
5 5 4 5 5 3 3 5 5 5 5 5 5 4 5 3 2 2 2 2 2 3 3 3 3 3 3 4 3 4 4 4 4 4 4 4 4 4 4 5 6 5 5 6 4 2 2 1 2 1 5 4 3 0 2 1 3 3 3 3 5 4
4 4 5 5 5 4 5 6 5 6 5 4 4 5 5 6 4 4 5 1 2 3 3 3 3 3 4 4 4 4 3 4 4 4 4 4 4 4 4 5 5 5 4 3 6 4 2 1 1 0 2 1 3 2 5 3 2 1 2 4 3 4
6 5 5 5 5 3 4 5 5 5 5 5 6 2 2 4 6 3 4 3 3 2 3 4 3 3 3 3 4 3 4 4 4 3 3 4 5 5 5 4 5 5 5 4 3 4 4 3 0 1 1 0 1 2 7 8 3 3 3 2 4 4
6 6 6 6 5 3 6 5 5 5 5 5 6 5 4 4 3 3 5 4 3 2 2 3 3 3 3 3 3 3 3 3 4 3 3 4 5 4 4 3 4 5 5 5 5 6 5 3 7 2 2 2 3 4 3 3 4 4 5 5 3 4
7 6 6 5 5 3 4 5 5 6 5 4 5 5 4 3 4 3 4 3 3 2 1 1 2 2 2 3 3 4 3 4 4 4 3 3 3 4 6 5 4 5 6 5 5 4 5 6 5 4 4 2 4 4 4 3 5 3 4 5 3 3
7 7 6 6 5 4 4 6 6 5 7 4 3 3 4 4 3 3 4 3 2 2 2 1 0 1 2 2 2 2 4 5 5 5 4 5 3 4 4 5 5 5 5 6 3 5 7 6 5 3 4 5 4 2 4 3 3 4 5 3 6 6
7 6 6 7 6 6 5 6 7 7 7 6 5 6 5 3 3 3 5 3 3 2 1 2 2 2 1 1 2 2 4 4 4 3 4 4 5 6 5 5 5 4 5 6 5 5 3 4 4 4 4 6 7 8 6 5 7 4 4 5 7 5
5 6 5 6 6 6 6 6 6 7 7 7 7 6 6 5 4 5 5 5 3 4 3 3 3 3 2 1 2 2 2 3 3 3 3 4 3 4 5 4 5 5 5 4 4 5 5 5 5 5 3 5 5 3 3 5 6 6 7 8 10 7
5 4 6 6 7 6 7 7 7 8 7 7 7 7 6 6 4 6 5 5 5 6 5 5 3 5 3 3 3 3 3 5 3 3 3 2 2 3 4 4 5 4 5 6 6 6 6 6 6 6 6 3 5 4 4 4 6 6 6 7 10 9
5 4 4 5 6 7 7 7 7 7 7 7 7 7 6 6 5 5 6 6 6 6 6 5 5 4 4 2 2 2 3 3 2 2 3 3 3 3 3 5 4 5 5 4 5 5 5 4 4 3 3 5 4 5 4 5 6 7 9 9 8 10
7 6 6 6 6 7 6 6 5 6 7 6 7 6 6 5 6 5 4 6 4 5 6 4 6 4 3 4 3 3 3 3 3 3 3 3 3 3 3 3 2 3 3 4 5 5 4 5 5 4 4 5 5 5 5 5 6 6 7 9 10 9
8 8 8 6 6 6 7 7 6 6 5 5 5 5 5 3 4 5 5 6 6 4 5 5 3 4 3 4 4 3 2 3 3 2 2 3 3 4 4 4 3 3 3 2 5 5 5 5 5 5 5 3 3 4 5 5 5 6 5 6 8 7
2 4 7 7 7 4 6 7 7 6 6 5 6 7 7 6 5 4 5 4 6 4 4 4 4 3 4 3 4 3 4 3 4 3 2 2 3 3 3 3 3 3 3 3 5 6 5 6 5 5 4 5 5 5 5 3 5 6 6 6 6 7
Wind_Direction
127 124 120 119 122 123 136 132 130 132 134 132 131 129 127 125 121 118 116 105 99 91 94 101 105 106 108 107 116 118 118 119 122 125 117 113 118 118 119 106 100 73 26 41 37 42 43 44 48 68 75 105 121 114 134 130 126 128 133 139 140 158
124 123 123 121 124 120 120 117 108 118 126 131 130 124 122 116 117 103 110 103 93 90 90 98 107 111 116 119 118 119 117 116 122 118 109 111 121 125 113 109 101 91 35 28 29 38 36 42 55 88 95 113 115 131 133 132 131 135 137 142 145 162
124 125 121 119 119 108 104 106 107 115 125 127 117 104 91 96 81 95 97 100 97 91 92 97 106 123 118 125 123 119 119 122 121 114 112 116 117 113 103 95 92 79 50 41 40 28 51 66 52 89 92 117 133 136 133 130 130 134 141 154 160 143
127 125 121 116 106 108 114 116 115 102 99 95 89 89 96 95 89 94 99 105 109 102 88 98 146 141 131 118 121 120 123 126 123 117 106 90 99 98 81 80 81 79 62 66 65 56 67 73 109 115 103 125 135 140 140 141 136 137 145 151 152 144
124 124 120 115 117 120 124 119 112 110 104 95 95 96 97 95 101 102 103 109 113 101 84 75 76 74 83 99 87 81 73 72 74 78 96 96 57 55 62 59 52 54 64 77 66 68 85 85 117 129 125 138 132 123 106 100 110 120 131 132 157 152
122 122 119 117 123 133 132 129 127 123 110 102 105 103 100 108 111 111 118 124 111 102 99 97 97 104 96 102 93 82 80 80 72 86 82 100 100 85 66 61 70 57 352 342 45 77 90 131 145 134 127 132 137 126 120 125 130 133 119 124 153 135
115 116 119 120 128 130 133 134 130 128 123 117 110 112 115 118 124 128 131 138 124 122 115 115 120 117 106 96 98 97 96 90 92 50 49 122 103 87 80 74 61 47 344 17 14 57 107 142 154 129 121 128 122 118 129 129 125 119 125 143 143 142
125 124 124 138 135 129 133 135 140 133 120 130 120 120 125 128 132 136 142 143 132 133 135 130 139 134 126 100 101 91 83 89 99 86 3 124 99 79 69 49 38 10 16 22 21 36 87 127 131 119 118 104 97 99 109 124 127 129 141 151 147 151
133 126 133 137 138 137 140 137 133 130 133 134 125 124 134 137 138 145 153 148 142 134 124 135 146 141 116 115 112 110 123 129 126 98 75 50 88 93 76 70 22 23 15 16 28 53 89 93 85 101 113 111 116 124 126 127 131 136 139 141 143 156
138 139 140 138 142 146 145 138 138 141 140 133 133 138 140 143 148 152 162 157 151 146 153 153 144 134 133 128 126 133 142 164 133 118 97 71 60 94 123 97 24 48 37 20 50 50 79 83 78 83 106 117 122 132 136 136 130 120 120 127 145 150
140 142 138 142 148 146 143 141 144 140 127 135 140 142 145 141 145 161 159 152 144 154 150 146 144 150 132 139 145 155 191 172 93 45 90 93 97 116 121 95 42 60 48 40 56 55 77 87 87 91 105 112 124 127 128 117 106 108 113 125 131 131
145 141 141 143 147 147 150 147 142 136 139 143 147 152 147 148 156 159 156 149 150 161 153 147 148 152 144 147 162 176 163 149 142 141 119 116 111 109 120 116 72 61 60 67 70 58 67 89 90 99 110 112 122 126 121 118 117 119 125 123 115 93
148 148 149 152 152 153 146 147 148 151 152 156 157 150 154 161 157 158 151 146 150 157 154 156 160 156 152 153 159 157 158 171 152 144 118 115 106 89 84 64 42 49 67 66 66 63 74 75 92 107 113 114 112 112 113 113 119 123 120 113 100 91
150 154 153 145 143 155 159 154 160 160 160 156 156 151 159 155 148 149 142 130 137 154 143 152 144 138 140 148 153 158 159 163 132 131 110 111 100 103 98 89 61 76 69 70 69 63 86 88 80 89 93 98 94 101 111 113 130 135 126 111 105 99
155 151 149 146 158 170 170 165 166 165 162 155 149 149 151 145 143 136 124 126 142 158 139 139 130 141 151 147 146 142 164 162 135 135 115 114 123 117 114 112 118 96 78 71 70 64 83 95 102 95 84 77 92 98 99 115 115 105 92 92 90 87
150 147 149 158 168 173 172 170 164 166 145 149 147 153 152 146 136 126 131 140 153 157 146 153 132 140 147 146 141 158 174 156 149 116 118 134 130 135 140 120 113 131 114 88 93 79 72 95 89 91 79 73 69 77 85 79 82 84 87 88 83 87
148 150 153 158 162 168 169 173 168 155 148 148 154 153 137 132 128 130 134 144 146 158 148 154 142 152 146 146 135 138 167 156 144 121 95 117 114 123 145 137 101 73 83 125 114 110 95 96 100 87 79 77 63 69 70 77 78 82 82 82 82 87
148 148 147 148 157 161 178 171 158 141 146 150 156 142 134 138 144 139 140 147 152 161 149 161 149 113 99 164 141 146 158 142 132 121 116 103 110 140 143 115 119 77 72 111 124 121 115 100 97 90 74 68 68 68 66 74 74 77 97 108 97 93
145 141 137 139 140 130 141 165 135 137 140 143 127 127 134 138 142 141 153 145 150 162 148 158 121 96 199 152 130 133 141 139 114 123 117 125 122 134 114 99 127 102 76 73 112 110 112 104 90 84 71 63 70 72 70 65 65 63 70 118 130 122
149 139 131 126 120 133 136 164 163 132 126 136 126 145 143 145 146 154 148 143 148 140 158 142 134 171 192 147 139 142 133 135 121 128 123 127 156 154 143 129 128 117 106 85 63 104 113 108 87 76 71 59 53 68 68 67 57 47 41 41 83 110
157 147 143 138 140 155 161 162 164 165 153 154 164 155 145 127 146 151 143 138 137 142 151 148 159 163 159 141 137 140 145 134 140 135 144 179 165 160 122 122 114 89 116 114 87 80 93 99 106 78 62 62 55 43 65 65 58 47 58 43 14 25
159 154 149 150 150 167 174 168 145 155 139 146 147 152 159 145 152 151 146 145 150 154 158 161 163 158 143 137 140 144 146 149 142 145 153 147 152 118 118 125 121 90 36 112 126 158 125 76 40 121 127 92 62 51 56 59 52 46 50 53 73 83
172 159 154 148 150 166 178 149 148 145 140 120 102 142 145 130 136 146 151 152 159 157 155 157 160 154 148 154 150 148 153 147 144 145 131 135 122 124 129 136 141 129 117 40 70 56 36 62 134 96 90 89 35 67 349 33 41 43 51 61 71 79
183 159 149 150 137 151 157 102 85 115 107 112 153 116 91 101 105 115 148 148 146 146 148 152 154 151 147 152 156 156 150 147 153 151 151 143 133 135 133 128 118 115 127 115 97 234 12 75 147 134 91 99 166 89 44 25 67 25 24 71 58 69
180 166 148 131 124 155 116 89 86 84 95 77 67 88 101 80 103 148 124 134 160 129 132 134 139 140 139 151 159 156 153 156 153 156 148 144 152 160 151 146 146 143 165 146 157 195 280 49 208 114 147 114 65 54 223 157 110 27 356 39 43 68
154 145 146 134 144 170 147 140 135 130 131 122 120 130 149 157 156 163 180 146 113 140 138 138 149 147 143 149 159 165 154 151 159 159 165 153 141 140 143 141 165 159 165 178 155 143 206 319 188 35 179 145 160 173 161 161 86 165 344 43 51 50
157 150 138 145 157 167 140 144 156 153 147 154 150 189 153 151 158 157 108 135 151 146 144 144 155 157 152 156 161 165 161 162 165 170 166 142 157 171 160 163 150 160 173 153 137 162 185 199 4 309 70 13 192 156 152 141 157 131 94 1 28 40
153 152 152 153 169 187 157 155 147 137 138 146 158 163 161 139 103 121 123 138 145 155 112 129 151 163 160 160 160 156 151 153 155 174 169 175 173 159 148 157 159 166 153 167 174 171 188 193 180 210 57 32 70 95 95 87 118 139 116 129 91 31
146 144 146 154 167 198 157 153 149 142 142 155 150 152 134 108 125 120 121 112 140 122 92 104 156 159 163 161 170 166 158 157 161 175 176 179 165 159 169 167 157 158 162 173 184 180 164 192 195 195 119 65 81 67 71 70 106 92 133 132 83 115
144 142 143 150 169 185 157 146 149 157 151 144 132 117 119 123 123 119 120 122 125 127 142 141 66 103 138 199 175 166 171 176 183 175 177 183 169 167 173 174 175 172 162 163 176 168 186 188 193 178 148 147 126 96 76 77 69 100 69 38 145 145
148 137 142 155 165 174 160 164 160 164 155 147 146 140 122 95 88 91 116 122 141 147 126 122 105 70 85 79 104 146 174 184 184 174 173 176 181 177 178 177 175 167 167 166 171 176 175 182 177 183 160 158 164 167 167 163 168 163 136 121 99 99
138 144 141 147 153 162 161 175 166 161 154 150 147 150 149 145 149 142 137 130 125 103 85 81 85 94 84 80 88 81 128 147 165 158 183 192 180 175 162 160 167 173 180 178 163 167 172 174 188 187 176 153 160 147 117 139 162 148 138 143 136 132
149 142 143 148 152 157 164 169 164 158 149 149 150 151 144 145 161 146 143 130 129 123 127 105 128 127 158 162 141 120 131 141 143 176 166 158 158 143 143 154 164 172 170 172 177 169 174 189 180 180 187 169 150 131 134 148 135 126 106 122 131 124
142 141 135 129 141 158 168 162 156 151 146 145 147 145 147 154 164 157 152 146 144 144 136 146 154 155 177 137 94 112 122 119 132 125 139 149 139 137 139 149 164 171 178 169 153 168 173 170 166 167 151 148 152 134 154 154 144 132 135 128 131 133
151 155 143 135 138 155 149 138 136 136 138 143 145 142 146 152 152 155 163 143 145 144 139 167 152 165 145 112 106 94 114 124 127 131 132 123 113 108 114 113 137 151 122 148 153 146 155 156 154 158 168 175 154 137 157 162 142 141 144 145 143 149
170 163 145 131 129 143 139 130 127 126 125 125 116 115 121 136 164 167 166 156 157 160 151 150 153 136 148 129 123 104 93 118 126 120 125 118 116 112 115 118 118 123 122 136 140 148 163 162 165 173 174 157 135 146 162 155 130 127 123 135 133 134
171 165 124 97 75 52 119 115 111 112 120 125 138 151 159 167 173 176 163 162 152 153 136 134 148 148 137 127 122 118 112 119 125 129 114 110 110 106 104 111 124 125 124 132 137 155 158 159 171 166 161 170 168 144 152 129 111 117 123 118 131 141